K9SET Weather Reports


time (UTC)temp
C
wind
direction
speed
KPH
gust
KPH
rain 1hr
cm
rain 24hr
cm
rain mn
cm
humidity
%
barometer
mb
20260503211504 18 247 14.5 27.4 0.00 0.38 0.38 35 1015.0
20260503210504 18 301 9.7 20.9 0.00 0.38 0.38 36 1014.9
20260503210005 18 250 6.4 24.1 0.00 0.38 0.38 36 1014.6
20260503205504 18 226 9.7 24.1 0.00 0.38 0.38 34 1014.7
20260503205004 18 281 8.0 22.5 0.00 0.38 0.38 35 1014.8
20260503204004 18 233 9.7 22.5 0.00 0.38 0.38 34 1015.1
20260503203505 18 263 11.3 24.1 0.00 0.38 0.38 33 1015.2
20260503203004 18 281 14.5 24.1 0.00 0.38 0.38 33 1015.3
20260503202506 18 287 11.3 24.1 0.00 0.38 0.38 36 1015.4
20260503202005 17 265 8.0 24.1 0.00 0.38 0.38 34 1015.5
20260503201004 17 241 6.4 19.3 0.00 0.38 0.38 34 1015.6
20260503200504 18 286 8.0 16.1 0.00 0.38 0.38 35 1015.8
20260503200004 18 299 8.0 20.9 0.00 0.38 0.38 32 1015.8
20260503195504 18 227 11.3 24.1 0.00 0.38 0.38 33 1016.0
20260503195004 18 221 9.7 24.1 0.00 0.38 0.38 34 1016.2
20260503194504 18 243 8.0 24.1 0.00 0.38 0.38 34 1016.2
20260503194004 18 233 8.0 25.7 0.00 0.38 0.38 33 1016.3
20260503193505 18 305 9.7 25.7 0.00 0.38 0.38 33 1016.5
20260503192505 17 260 9.7 22.5 0.00 0.38 0.38 33 1016.9
20260503192004 17 300 9.7 22.5 0.00 0.38 0.38 34 1016.8
20260503191504 17 262 4.8 20.9 0.00 0.38 0.38 35 1017.0
20260503191004 17 258 11.3 20.9 0.00 0.38 0.38 34 1017.2
20260503190504 17 304 8.0 19.3 0.00 0.38 0.38 37 1017.2
20260503185505 17 214 6.4 29.0 0.00 0.38 0.38 35 1017.4
20260503184504 17 252 11.3 20.9 0.00 0.38 0.38 32 1017.4
20260503184005 17 265 8.0 19.3 0.00 0.38 0.38 35 1017.5
20260503183505 17 201 4.8 22.5 0.00 0.38 0.38 37 1017.7
20260503183004 16 242 9.7 25.7 0.00 0.38 0.38 33 1017.8
20260503182504 16 246 11.3 25.7 0.00 0.38 0.38 34 1017.9
20260503182004 16 218 9.7 20.9 0.00 0.38 0.38 34 1018.0
20260503181506 16 233 8.0 24.1 0.00 0.38 0.38 32 1018.0
20260503181005 16 280 8.0 32.2 0.00 0.38 0.38 34 1018.2
20260503180504 16 288 16.1 32.2 0.00 0.38 0.38 32 1018.2
20260503180005 16 238 11.3 25.7 0.00 0.38 0.38 34 1018.2
20260503175504 16 260 9.7 22.5 0.00 0.38 0.38 32 1018.3
20260503175004 16 218 8.0 22.5 0.00 0.38 0.38 37 1018.4
20260503174503 16 252 6.4 22.5 0.00 0.38 0.38 34 1018.4
20260503174004 16 237 14.5 27.4 0.00 0.38 0.38 31 1018.5
20260503173504 16 238 14.5 27.4 0.00 0.38 0.38 33 1018.6
20260503173006 16 247 9.7 19.3 0.00 0.38 0.38 31 1018.6
20260503172505 16 277 8.0 25.7 0.00 0.38 0.38 45 1018.7
20260503172004 16 270 11.3 29.0 0.00 0.38 0.38 43 1018.7
20260503171004 16 218 4.8 19.3 0.00 0.38 0.38 46 1018.9
20260503170505 15 262 8.0 27.4 0.00 0.38 0.38 49 1018.9
20260503151004 26 294 11.3 20.9 0.08 0.08 0.08 32 1020.3
20260503150504 22 231 9.7 20.9 0.05 0.05 0.05 38 1020.3
20260503131007 7 143 0.0 3.2 0.00 0.00 0.00 93 1020.4
20260503130506 6 137 1.6 3.2 0.00 0.00 0.00 94 1020.3
20260503090506 0 336 0.0 0.0 0.00 0.00 0.00 93 1019.3
20260503081505 0 336 0.0 1.6 0.00 0.00 0.00 93 1019.1
20260503080506 0 336 0.0 1.6 0.00 0.00 0.00 93 1019.1
20260503072505 0 336 0.0 0.0 0.00 0.00 0.00 92 1019.0
20260503072006 0 336 0.0 0.0 0.00 0.00 0.00 92 1019.0
20260503071006 0 336 0.0 0.0 0.00 0.00 0.00 92 1019.0
20260503055005 1 336 0.0 0.0 0.00 0.00 0.00 92 1019.2
20260503054506 1 336 0.0 0.0 0.00 0.00 0.00 92 1019.4
20260503054006 1 336 0.0 0.0 0.00 0.00 0.00 92 1019.4
20260503053507 1 336 0.0 0.0 0.00 0.00 0.00 92 1019.2
20260503053006 1 336 0.0 0.0 0.00 0.00 0.00 92 1019.3
20260503052506 1 336 0.0 1.6 0.00 0.00 0.00 91 1019.3
20260503052005 1 336 0.0 1.6 0.00 0.00 0.00 91 1019.2
20260503050006 2 336 0.0 0.0 0.00 0.00 0.00 91 1019.1
20260503045505 2 336 0.0 0.0 0.00 0.00 0.00 91 1019.1
20260503045006 2 336 0.0 0.0 0.00 0.00 0.00 91 1019.1
20260503044507 2 336 0.0 1.6 0.00 0.00 0.00 91 1019.1
20260503044006 2 336 0.0 1.6 0.00 0.00 0.00 91 1019.0
20260503043506 2 336 0.0 1.6 0.00 0.00 0.00 91 1019.1
20260503043007 2 336 0.0 1.6 0.00 0.00 0.00 91 1019.1
20260503042505 2 336 0.0 1.6 0.00 0.00 0.00 91 1019.1
20260503042005 3 336 0.0 1.6 0.00 0.00 0.00 91 1019.1
20260503041507 3 336 0.0 0.0 0.00 0.00 0.00 91 1019.0
20260503041006 3 336 0.0 0.0 0.00 0.00 0.00 90 1019.1
20260503040505 3 336 0.0 0.0 0.00 0.00 0.00 90 1019.0
20260503040005 3 336 0.0 0.0 0.00 0.00 0.00 90 1019.0
20260503035505 3 336 0.0 0.0 0.00 0.00 0.00 90 1019.1
20260503035005 3 336 0.0 0.0 0.00 0.00 0.00 90 1019.1
20260503034505 3 336 0.0 0.0 0.00 0.00 0.00 90 1019.1
20260503034006 3 336 0.0 0.0 0.00 0.00 0.00 90 1019.0
20260503033007 3 336 0.0 0.0 0.00 0.00 0.00 89 1019.0
20260503032507 3 336 0.0 0.0 0.00 0.00 0.00 89 1018.9
20260503031006 4 336 0.0 0.0 0.00 0.00 0.00 89 1018.9
20260503030505 4 336 0.0 0.0 0.00 0.00 0.00 89 1018.8
20260503030005 4 336 0.0 3.2 0.00 0.00 0.00 89 1018.8
20260503025505 5 336 0.0 3.2 0.00 0.00 0.00 88 1018.8
20260503025006 5 336 1.6 3.2 0.00 0.00 0.00 88 1018.8
20260503024505 5 336 0.0 1.6 0.00 0.00 0.00 88 1018.6
20260503024007 5 336 0.0 0.0 0.00 0.00 0.00 88 1018.6
20260503023506 5 336 0.0 0.0 0.00 0.00 0.00 87 1018.6
20260503023005 5 336 0.0 0.0 0.00 0.00 0.00 87 1018.6
20260503022505 5 336 0.0 1.6 0.00 0.00 0.00 87 1018.5
20260503022007 6 336 0.0 1.6 0.00 0.00 0.00 86 1018.4
20260503021506 6 336 0.0 1.6 0.00 0.00 0.00 86 1018.4
20260503021005 6 336 0.0 1.6 0.00 0.00 0.00 86 1018.3
20260503020507 6 336 0.0 0.0 0.00 0.00 0.00 85 1018.2
20260503020005 6 336 0.0 0.0 0.00 0.00 0.00 84 1018.2
20260503015505 6 336 0.0 0.0 0.00 0.00 0.00 84 1018.2
20260503015005 7 336 0.0 0.0 0.00 0.00 0.00 83 1018.1
20260503014505 7 336 0.0 0.0 0.00 0.00 0.00 83 1017.9
20260503013006 7 336 0.0 0.0 0.00 0.00 0.00 81 1017.7
20260503012505 8 336 0.0 1.6 0.00 0.00 0.00 80 1017.6
20260503012009 8 336 0.0 1.6 0.00 0.00 0.00 80 1017.6
20260503011506 8 336 0.0 0.0 0.00 0.00 0.00 79 1017.5
20260503011005 8 336 0.0 1.6 0.00 0.00 0.00 78 1017.5
20260503010505 8 336 0.0 1.6 0.00 0.00 0.00 76 1017.4
20260503005506 10 334 0.0 1.6 0.00 0.00 0.00 75 1017.4
20260503005005 10 334 0.0 1.6 0.00 0.00 0.00 73 1017.3
20260503004505 10 334 0.0 1.6 0.00 0.00 0.00 71 1017.1
20260503004005 10 334 0.0 1.6 0.00 0.00 0.00 71 1017.1
20260503003506 10 334 0.0 1.6 0.00 0.00 0.00 70 1017.1
20260503003005 11 334 0.0 1.6 0.00 0.00 0.00 69 1017.0
20260503002505 11 334 0.0 1.6 0.00 0.00 0.00 69 1017.0
20260503002005 11 334 0.0 1.6 0.00 0.00 0.00 67 1016.9
20260503001505 11 334 0.0 1.6 0.00 0.00 0.00 68 1016.8
20260503001005 11 334 0.0 3.2 0.00 0.00 0.00 67 1016.8
20260503000505 11 334 0.0 3.2 0.00 0.00 0.00 66 1016.8
20260503000006 11 302 0.0 3.2 0.00 0.00 0.00 65 1016.8
20260502235506 11 283 1.6 3.2 0.00 0.00 0.00 64 1016.8
20260502235006 11 333 1.6 3.2 0.00 0.00 0.00 63 1016.7
20260502234006 11 343 0.0 3.2 0.00 0.00 0.00 63 1016.6
20260502233507 11 342 0.0 4.8 0.00 0.00 0.00 64 1016.6
20260502233005 11 328 1.6 4.8 0.00 0.00 0.00 64 1016.6
20260502232504 11 321 1.6 4.8 0.00 0.00 0.00 65 1016.7
20260502232005 11 13 1.6 4.8 0.00 0.00 0.00 62 1016.6
20260502231004 11 6 1.6 4.8 0.00 0.00 0.00 65 1016.8
20260502230005 12 328 1.6 4.8 0.00 0.00 0.00 62 1016.7
20260502225504 12 353 1.6 4.8 0.00 0.00 0.00 60 1016.7
20260502225005 12 337 3.2 4.8 0.00 0.00 0.00 60 1016.7
20260502224506 12 328 0.0 4.8 0.00 0.00 0.00 61 1016.7
20260502224005 12 307 4.8 12.9 0.00 0.00 0.00 58 1016.7
20260502223505 12 345 3.2 12.9 0.00 0.00 0.00 60 1016.7
20260502223005 12 354 4.8 9.7 0.00 0.00 0.00 60 1016.7
20260502222505 12 307 3.2 9.7 0.00 0.00 0.00 61 1016.7
20260502222006 12 3 3.2 9.7 0.00 0.00 0.00 62 1016.6
20260502221504 12 4 3.2 11.3 0.00 0.00 0.00 61 1016.6
20260502221005 12 31 3.2 12.9 0.00 0.00 0.00 62 1016.6
20260502220505 12 26 4.8 12.9 0.00 0.00 0.00 61 1016.6
20260502220004 12 87 1.6 8.0 0.00 0.00 0.00 60 1016.6
20260502215505 12 309 3.2 8.0 0.00 0.00 0.00 59 1016.5
20260502215005 12 1 3.2 8.0 0.00 0.00 0.00 60 1016.5
20260502214506 12 83 3.2 8.0 0.00 0.00 0.00 62 1016.4
20260502214005 12 4 3.2 11.3 0.00 0.00 0.00 61 1016.4
20260502213506 12 30 3.2 11.3 0.00 0.00 0.00 60 1016.4
20260502213006 12 15 3.2 11.3 0.00 0.00 0.00 63 1016.4
20260502212505 12 1 3.2 11.3 0.00 0.00 0.00 64 1016.4
20260502212006 12 24 3.2 11.3 0.00 0.00 0.00 64 1016.5